Tracking 18796 objects as of 19-September-2017
HD Live streaming from Space Station
objects crossing your sky now

GONETS D1 4

Track GONETS D1 4 now!
10-day predictions
GONETS D1 4 is classified as:


NORAD ID: 24728
Int'l Code: 1997-006D
Perigee: 1,408.8 km
Apogee: 1,419.7 km
Inclination: 82.6 °
Period: 113.9 minutes
Semi major axis: 7785 km
RCS: 1.0104 m2 (large)
Launch date: February 14, 1997
Source: Commonwealth of Independent States (former USSR) (CIS)
Launch site: PLESETSK MISSILE AND SPACE COMPLEX (PKMTR)
aabbcc
Your satellite tracking list
Your tracking list is empty





NASA's NSSDC Master Catalog

Two Line Element Set (TLE):
1 24728U 97006D   17262.09748378 -.00000013 +00000-0 -12738-3 0  9999
2 24728 082.6023 112.4865 0006948 233.7414 126.3042 12.63844263950083
Source of the keplerian elements: AFSPC